Regional Weather Roundup
Issued by NWS Sterling, VA

Home | Current Version | Previous Version | Text Only | Print | Product List | Glossary Off
Versions: 1 2 3 4 5 6 7 8 9 10 11 12 13 14 15 16 17 18 19 20 21 22 23 24 25 26 27 28 29 30 31 32 33 34 35 36 37 38 39 40 41 42 43 44 45 46 47 48 49 50

000
ASUS41 KLWX 282211
RWRLWX

REGIONAL WEATHER ROUNDUP
NATIONAL WEATHER SERVICE BALTIMORE MD/WASHINGTON DC
600 PM EDT WED SEP 28 2016

Note: "FAIR" indicates few or no clouds below 12,000 feet
with no significant weather and/or obstructions to visibility.
 TC=TEMPERATURE CELSIUS

 * =Non NWS site. Station does not report precipitation (e.g. rain,
    snow, etc.), thunder, or fog.

DCZ001-MDZ009-015-VAZ040>042-051-053>054-282300-
WASHINGTON METRO

CITY           SKY/WX    TMP DP  RH WIND       PRES   REMARKS
WASHINGTON NAT TSTM      70  68  93 E10       30.01R
DULLES         LGT RAIN  67  65  93 CALM      30.00R FOG
ANDREWS AFB    LGT RAIN  68  64  88 NE8       30.00S
FT BELVOIR     DRIZZLE   68  66  94 VRB3      29.99S
QUANTICO       CLOUDY    70  67  90 E10       29.99R
COLLEGE PARK*  CLOUDY    66  63  88 E6        30.01S
LEESBURG*      HVY RAIN  64  64 100 N7        30.02R VSB 1/2
MANASSAS*      CLOUDY    66  66 100 CALM      29.99R
GAITHERSBURG*  CLOUDY    64  61  88 E6        30.05F

$$

MDZ006>007-011-014-282300-
BALTIMORE METRO

CITY           SKY/WX    TMP DP  RH WIND       PRES   REMARKS
BWI AIRPORT    RAIN      68  65  90 NE15      30.03R FOG
MD SCIENCE CTR   N/A     70  65  84 MISG      30.05R
MARTIN STATE   CLOUDY    70  70 100 E8        30.05R
ANNAPOLIS      RAIN      71  68  90 E16       30.02R
FORT MEADE*      N/A     66  64  94 NE7       30.05R

$$

MDZ012-015-019>023-282300-
MARYLAND EASTERN SHORE

CITY           SKY/WX    TMP DP  RH WIND       PRES   REMARKS
OCEAN CITY     CLOUDY    73  69  87 E14       30.02R
SALISBURY      CLOUDY    71  69  93 E9        30.01R
BAY BRIDGE AP* CLOUDY    68  66  94 MISG      30.03R FOG
CAMBRIDGE*     MOCLDY    68  66  94 NE3       29.99S
EASTON*        LGT RAIN  72  66  83 E5        30.06R

$$

MDZ017>025-282300-
SOUTHERN MARYLAND

CITY           SKY/WX    TMP DP  RH WIND       PRES   REMARKS
PATUXENT RIVER CLOUDY    71  67  87 E12       29.98R THUNDER
ST INIGOES     LGT RAIN  71  69  93 E8        29.97R
LEONARDTOWN*   CLOUDY    68  66  94 E5        30.01R

$$

MDZ003>005-282300-
NORTH CENTRAL MARYLAND

CITY           SKY/WX    TMP DP  RH WIND       PRES   REMARKS
FREDERICK*     CLOUDY    66  66 100 N7        30.05S
HAGERSTOWN APT LGT RAIN  66  59  78 E6        30.03R

$$

MDZ501>502-282300-
WESTERN MARYLAND

CITY           SKY/WX    TMP DP  RH WIND       PRES   REMARKS
OAKLAND*       FOG       54  54 100 E17G25    30.01S VSB<1/4
CUMBERLAND*    CLOUDY    66  59  77 E5        30.05S

$$

VAZ025>031-282300-
SHENANDOAH VALLEY

CITY           SKY/WX    TMP DP  RH WIND       PRES   REMARKS
WINCHESTER*    DRIZZLE   63  61  94 NE3       30.01S
FRONT ROYAL*   CLOUDY    63  63 100 N3        30.00S
LURAY*         CLOUDY    66  64  94 N8        29.99R
NEW MARKET*    CLOUDY   N/A N/A N/A N8        29.98R
STAUNTON*      CLOUDY    67  62  83 E5        30.00R
WAYNESBORO*    CLOUDY    65  62  90 SE5       29.98S

$$

WVZ021-048>050-054>055-282300-
EASTERN WEST VIRGINIA PANHANDLE

CITY           SKY/WX    TMP DP  RH WIND       PRES   REMARKS
MARTINSBURG    LGT RAIN  64  61  90 NE6       30.02R
PETERSBURG*    CLOUDY    67  58  72 W5        29.99R

$$

VAZ036>039-050-282300-
CENTRAL FOOTHILLS

CITY           SKY/WX    TMP DP  RH WIND       PRES   REMARKS
CHARLOTTESVILL CLOUDY    67  63  87 NE9       29.98R
CULPEPER*      CLOUDY    69  68  97 CALM      29.99S
ORANGE*          N/A     66  66 100 CALM      30.00R
GORDONSVILLE*  NOT AVBL
WARRENTON*     DRIZZLE   68  63  84 N5        29.98S

$$

VAZ055>057-282300-
NORTH AND CENTRAL PIEDMONT

CITY           SKY/WX    TMP DP  RH WIND       PRES   REMARKS
FREDERICKSBRG* PTSUNNY   68  68 100 CALM      29.97R
STAFFORD*      CLOUDY    68  67  98 NE5       30.02R

$$

NCZ024-NYZ072-PAZ021-071-VAZ022-071-282300-
OTHER REGIONAL OBSERVATIONS

CITY           SKY/WX    TMP DP  RH WIND       PRES   REMARKS
NEW YORK CITY  CLOUDY    64  53  67 E7        30.18R
PHILADELPHIA   CLOUDY    66  61  84 E17G26    30.10R
PITTSBURGH     CLOUDY    72  54  53 E15       29.91R
ROANOKE        PTSUNNY   69  65  86 E5        29.93F
RICHMOND       LGT RAIN  69  67  93 NE13      29.94R
RALEIGH        CLOUDY    76  71  85 S10       29.92S THUNDER

$$

ANZ530>537-282300-
MARINE OBSERVATIONS

STATION/POSITION TIME  TEMP    WIND        PRES
                       AIR SEA DIR/SP/G
                 (UTC) (F)     (DEG/KT/KT) (MB)
THOMAS PT LIGHT  2200   69 74   90/ 17/ 18 1017.3R
BALT KEY BRIDGE  2148   70      60/ 13/ 17 1016.3R
COVE POINT       2148   71     100/ 13/ 15 1016.0S
LEWISETTA        2148   73 73  120/ 21/ 24 1013.9F
SOLOMONS ISLAND  2142   71 74   70/ 12/ 16   N/A
PINEY POINT      2142          120/ 14/ 16   N/A

$$




USA.gov is the U.S. government's official web portal to all federal, state and local government web resources and services.